SCP
0 0 0 0 0 0 0 0 0 0 0 0 0 0 0 0 0 0 0 0 0 0 0 0 0 0 0 0 0 0 0 0 0 0 0 0 0 0 0 0 0 0 0
0 0 0 0 0 0 0 0 0 0 0 0 0 0 0 0 0 0 0 0 0 0 0 0 0 0 0 0 0 0 0 0 0 0 0 0 0 0 0 0 0 0 0
0 0 0 0 0 0 0 0 0 0 0 0 0 0 0 0 0 0 0 0 0 0 0 0 0 0 0 0 0 0 0 0 0 0 0 0 0 0 0 0 0 0 0
0 0 0 0 0 0 0 0 0 0 0 0 0 0 0 0 0 0 0 0 0 0 0 0 0 0 0 0 0 0 0 0 0 0 0 0 0 0 0 0 0 0 0
0 0 0 0 0 0 0 0 0 0 0 0 0 0 0 0 0 0 0 0 0 0 0 0 0 0 0 0 0 0 0 0 0 0 0 0 0 0 0 0 0 0 0
0 0 0 0 0 0 0 0 0 0 0 0 0 0 0 0 0 0 0 0 0 0 0 0 0 0 0 0 0 0 0 0 0 0 0 0 0 0 0 0 0 0 0
0 0 0 0 0 0 0 0 0 0 0 0 0 0 0 0 0 0 0 0 0 0 0 0 0 0 0 0 0 0 0 0 0 0 0 0 0 0 0 0 0 0 0
0 0 0 0 0 0 0 0 0 0 0 0 0 0 0 0 0 0 0 0 0 0 0 0 0 0 0 0 0 0 0 0 0 0 0 0 0 0 0 0 0 0 0
0 0 0 0 0 0 0 0 0 0 0 0 0 0 0 0 0 0 0 0 0 0 0 0 0 0 0 0 0 0 0 0 0 0 0 0 0 0 0 0 0 0 0
0 0 0 0 0 0 0 0 0 0 0 0 0 0 0 0 0 0 0 0 0 0 0 0 0 0 0 0 0 0 0 0 0 0 0 0 0 0 0 0 0 0 0
0 0 0 0 0 0 0 0 0 0 0 0 0 0 0 0 0 0 0 0 0 0 0 0 0 0 0 0 0 0 0 0 0 0 0 0 0 0 0 0 0 0 0
0 0 0 0 0 0 0 0 0 0 0 0 0 0 0 0 0 0 0 0 0 0 0 0 0 0 0 0 0 0 0 0 0 0 0 0 0 0 0 0 0 0 0
0 0 0 0 0 0 0 0 0 0 0 0 0 0 0 0 0 0 0 0 0 0 0 0 0 0 0 0 0 0 0 0 0 0 0 0 0 0 0 0 0 0 0
0 0 0 0 0 0 0 0 0 0 0 0 0 0 0 0 0 0 0 0 0 0 0 0 0 0 0 0 0 0 0 0 0 0 0 0 0 0 0 0 0 0 0
0 0 0 0 0 0 0 0 0 0 0 0 0 0 0 0 0 0 0 0 0 0 0 0 0 0 0 0 0 0 0 0 0 0 0 0 0 0 0 0 0 0 0
0 0 0 0 0 0 0 0 0 0 0 0 0 0 0 0 0 0 0 0 0 0 0 0 0 0 0 0 0 0 0 0 0 0 0 0 0 0 0 0 0 0 0
0 0 0 0 0 0 0 0 0 0 0 0 0 0 0 0 0 0 0 0 0 0 0 0 0 0 0 0 0 0 0 0 0 0 0 0 0 0 0 0 0 0 0
0 0 0 0 0 0 0 0 0 0 0 0 0 0 0 0 0 0 0 0 0 0 0 0 0 0 0 0 0 0 0 0 0 0 0 0 0 0 0 0 0 0 0
0 0 0 0 0 0 0 0 0 0 0 0 0 0 0 0 0 0 0 0 0 0 0 0 0 0 0 0 0 0 0 0 0 0 0 0 0 0 0 0 0 0 0
0 0 0 0 0 0 0 0 0 0 0 0 0 0 0 0 0 0 0 0 0 0 0 0 0 0 0 0 0 0 0 0 0 0 0 0 0 0 0 0 0 0 0
0 0 0 0 0 0 0 0 0 0 0 0 0 0 0 0 0 0 0 0 0 0 0 0 0 0 0 0 0 0 0 0 0 0 0 0 0 0 0 0 0 0 0
0 0 0 0 0 0 0 0 0 0 0 0 0 0 0 0 0 0 0 0 0 0 0 0 0 0 0 0 0 0 0 0 0 0 0 0 0 0 0 0 0 0 0
0 0 0 0 0 0 0 0 0 0 0 0 0 0 0 0 0 0 0 0 0 0 0 0 0 0 0 0 0 0 0 0 0 0 0 0 0 0 0 0 0 0 0
0 0 0 0 0 0 0 0 0 0 0 0 0 0 0 0 0 0 0 0 0 0 0 0 0 0 0 0 0 0 0 0 0 0 0 0 0 0 0 0 0 0 0
0 0 0 0 0 0 0 0 0 0 0 0 0 0 0 0 0 0 0 0 0 0 0 0 0 0 0 0 0 0 0 0 0 0 0 0 0 0 0 0 0 0 0
0 0 0 0 0 0 0 0 0 0 0 0 0 0 0 0 0 0 0 0 0 0 0 0 0 0 0 0 0 0 0 0 0 0 0 0 0 0 0 0 0 0 0
Wind_Speed
5 5 4 4 5 4 4 4 4 5 5 5 5 5 5 5 5 5 4 11 12 12 12 11 11 10 9 9 8 8 8 8 8 8 8 8 8 8 8 8 8 8 8
6 6 6 6 6 5 5 5 6 6 5 4 5 6 6 5 5 6 5 7 12 12 13 13 12 12 11 10 10 9 9 8 8 8 8 7 7 7 7 7 7 7 7
7 7 6 6 7 6 6 5 6 5 5 5 6 6 5 5 5 6 6 5 6 11 13 15 14 13 13 12 11 11 10 9 9 8 8 7 7 6 6 6 6 6 6
8 7 6 7 7 6 6 6 5 5 5 5 4 4 4 4 6 6 6 5 5 5 9 15 15 15 14 14 13 12 11 10 9 9 8 8 7 6 5 5 4 4 4
7 7 6 6 6 6 6 6 6 5 6 6 5 5 4 4 5 6 6 7 7 6 6 11 14 14 14 15 15 14 13 12 10 10 9 8 7 7 6 5 4 3 2
6 6 5 6 6 5 6 6 6 6 5 5 5 5 5 5 4 5 7 7 7 8 7 7 7 9 14 16 16 16 15 14 12 11 10 9 8 7 7 6 5 4 3
5 6 5 5 5 6 7 7 6 6 6 3 2 3 3 4 5 5 5 6 8 9 8 8 6 5 6 15 17 16 16 15 14 12 11 10 9 8 8 7 6 5 4
5 5 6 5 6 6 7 7 6 4 4 4 4 3 3 4 5 6 5 7 8 6 8 10 8 8 6 5 9 15 16 16 15 14 12 11 10 9 8 8 7 6 6
4 5 6 6 6 6 6 7 7 8 6 5 5 5 4 6 4 3 5 7 7 7 7 7 9 9 9 7 6 12 13 14 16 15 13 12 11 10 9 9 8 8 7
4 4 5 5 6 5 6 7 7 7 7 6 5 5 5 4 4 3 3 4 5 7 7 7 8 8 9 7 9 13 14 14 16 14 13 12 11 11 10 9 9 8 7
4 4 4 4 4 4 5 6 6 7 6 7 6 4 6 4 4 4 5 3 2 3 4 5 5 6 8 8 7 12 16 17 16 14 13 13 12 11 11 9 8 7 7
3 5 5 4 4 4 5 5 6 6 6 7 6 5 5 4 5 6 8 5 4 2 2 2 3 4 5 6 10 15 17 17 16 15 15 13 11 10 9 8 8 8 8
3 6 6 5 4 4 4 4 4 5 5 6 6 6 6 6 4 4 6 5 4 2 1 1 1 1 2 2 5 14 15 17 16 15 14 12 9 6 5 7 8 9 10
3 5 6 5 5 5 5 4 3 3 3 4 5 5 4 4 4 5 4 4 3 2 2 2 1 1 1 0 4 10 8 15 15 15 13 11 8 6 7 8 9 11 12
4 6 6 6 6 6 6 5 3 3 3 3 3 3 2 2 1 2 2 3 4 4 5 4 2 1 1 1 4 3 3 11 12 11 10 9 8 7 8 9 11 12 13
6 6 7 7 7 7 7 5 4 5 4 4 3 3 3 2 2 2 1 1 2 3 3 2 2 1 1 2 4 4 3 8 9 9 9 8 8 9 10 11 13 14 14
6 7 7 7 8 8 8 7 7 7 6 6 6 6 6 5 4 3 3 2 2 0 2 1 2 1 1 3 3 3 3 2 1 5 6 7 9 10 11 12 13 13 13
6 7 7 8 8 9 9 9 8 8 8 8 7 7 7 5 6 5 4 4 3 2 1 1 2 1 1 2 3 3 2 2 1 3 6 8 10 10 11 12 12 13 13
7 7 8 9 9 9 9 9 8 9 9 9 8 8 7 6 6 5 5 4 3 3 3 2 2 2 2 2 2 2 1 1 1 2 5 7 9 10 11 11 12 12 12
7 8 8 8 8 8 9 8 8 9 9 9 8 8 7 6 5 5 5 5 4 4 4 3 2 2 2 2 2 1 1 1 0 1 3 5 7 8 10 11 12 12 12
8 7 7 8 7 7 8 8 8 8 8 8 8 8 8 10 9 6 4 4 4 4 3 3 2 2 2 2 1 1 1 1 1 1 1 2 2 3 4 8 11 13 13
7 7 7 7 8 8 13 13 9 7 7 7 7 7 7 9 11 12 11 9 6 4 3 2 2 2 1 1 1 1 1 1 2 1 1 3 3 4 4 4 10 13 13
6 6 6 7 6 8 13 13 13 7 6 6 5 5 5 6 7 5 8 10 9 9 5 2 1 0 0 1 1 1 1 2 3 2 1 4 2 4 4 6 12 13 13
4 4 5 5 5 7 11 11 11 6 5 5 4 4 4 5 4 4 4 5 5 5 4 2 2 2 2 2 3 3 3 2 3 3 3 3 3 3 4 4 11 11 10
3 3 2 3 4 5 9 10 8 3 4 4 4 3 3 3 7 7 4 4 4 4 5 5 3 3 4 4 3 2 1 0 2 2 1 2 2 3 4 3 5 6 6
2 2 2 1 2 3 6 8 7 2 3 3 3 4 6 5 7 7 2 1 3 3 3 4 5 6 5 5 5 1 3 2 1 3 2 1 2 3 5 3 2 3 5
Wind_Direction
199 198 203 205 205 201 201 208 218 226 234 240 241 237 231 212 196 194 201 199 190 185 183 184 186 186 183 178 171 163 157 151 145 139 134 129 123 118 112 106 101 96 92
198 197 201 205 209 209 209 210 215 222 228 228 235 231 226 213 203 197 201 202 198 192 191 192 194 195 195 191 184 178 173 167 160 155 149 142 136 130 124 116 109 103 97
202 200 203 207 210 209 210 212 219 225 233 232 234 230 223 213 204 203 203 202 203 201 198 200 202 202 203 200 195 190 186 181 174 170 164 158 153 147 138 130 121 113 106
208 205 209 213 207 204 207 210 212 218 228 229 231 230 223 213 209 207 204 204 203 204 207 207 207 207 208 207 203 198 194 191 187 183 178 175 172 168 162 153 145 138 126
212 212 219 220 205 206 209 213 212 208 220 226 229 231 227 219 212 207 208 208 207 205 205 213 209 208 210 212 211 206 200 198 197 195 192 189 188 188 187 183 179 175 167
217 216 225 225 211 213 218 216 216 213 215 217 225 230 228 228 220 213 211 210 211 212 207 210 207 210 209 212 215 213 206 202 202 203 202 201 201 202 204 206 206 209 218
228 223 231 230 221 223 226 221 218 220 226 202 209 255 265 242 235 229 216 212 215 214 209 210 206 200 208 212 214 217 214 208 206 208 208 209 211 213 216 219 222 230 240
244 235 234 235 229 230 234 227 218 220 221 184 186 207 269 285 254 231 216 217 220 213 214 213 208 203 199 198 211 213 216 215 211 210 212 215 218 221 225 230 235 242 251
260 250 244 242 239 230 233 231 220 219 227 213 194 185 204 233 255 264 233 226 217 212 216 211 210 207 202 198 200 210 209 215 216 216 216 219 224 228 233 239 246 251 259
284 272 261 253 249 243 241 240 231 226 225 227 216 218 219 198 207 266 270 245 230 223 218 215 212 209 204 199 201 201 201 205 215 222 226 227 230 234 240 246 253 261 270
319 309 286 271 264 257 254 250 245 235 228 230 219 210 227 229 219 230 261 262 261 246 230 223 216 210 206 200 198 201 199 203 211 223 231 235 238 243 248 252 260 270 280
340 346 331 307 286 276 269 262 254 247 242 239 235 216 207 209 213 219 240 243 241 251 258 246 232 218 205 199 201 198 198 203 210 220 228 234 240 253 261 266 274 283 291
350 347 349 342 328 311 297 286 273 264 254 249 244 237 229 231 222 221 237 244 236 237 292 320 335 307 229 200 201 192 195 199 205 215 222 230 242 258 273 280 284 289 292
354 352 356 357 354 346 335 321 300 288 280 265 259 253 245 242 230 222 222 226 242 245 242 238 37 15 3 100 197 180 192 194 199 208 220 230 237 249 266 272 278 283 286
6 7 6 7 4 2 358 352 351 343 335 323 308 291 272 281 273 246 219 206 216 235 236 202 179 61 54 91 156 141 148 192 196 203 215 228 240 251 262 267 272 276 278
16 15 16 16 15 13 11 15 14 10 25 20 15 24 26 14 20 8 342 267 218 222 230 157 142 123 131 127 144 117 140 178 196 209 218 229 242 253 260 264 267 270 273
23 26 24 25 25 21 19 27 31 28 37 36 34 40 39 33 37 28 28 29 21 73 196 107 79 76 110 128 111 104 110 113 180 224 237 248 256 259 262 266 269 272 274
30 31 32 35 33 30 28 32 35 37 41 43 40 45 41 42 45 36 36 36 29 28 99 135 99 85 85 129 113 119 124 134 150 250 261 264 267 270 271 271 272 273 275
40 40 42 43 39 36 37 37 41 46 48 47 46 49 45 48 48 41 41 38 29 29 45 97 90 79 78 100 100 97 111 82 201 262 273 278 280 278 276 277 278 280 282
49 47 47 47 47 46 44 43 47 51 52 49 46 45 45 51 54 46 43 37 39 42 48 69 75 73 78 84 94 99 96 68 340 310 293 288 289 294 295 292 289 289 286
54 47 46 46 46 51 52 51 48 53 52 50 44 39 42 51 59 63 62 47 42 44 46 55 54 55 54 64 83 91 98 41 324 313 308 293 297 290 290 290 289 284 279
53 50 48 46 47 54 61 64 65 52 50 47 42 33 34 39 42 44 52 54 52 53 49 50 43 49 36 42 75 88 102 74 304 293 296 275 260 265 264 255 271 276 275
58 53 48 46 45 56 64 67 69 63 53 46 42 35 32 29 38 34 36 35 30 35 48 98 107 125 199 201 140 125 173 192 229 258 291 279 262 264 262 269 281 281 279
69 62 51 43 37 46 61 66 68 56 48 39 35 38 34 5 8 48 42 27 15 7 12 70 159 202 207 202 185 186 196 214 255 253 203 262 285 274 279 278 287 283 279
86 74 63 51 39 25 55 65 68 48 38 21 10 14 20 358 2 29 45 22 5 348 3 13 360 316 291 281 235 166 176 228 303 287 220 237 295 304 293 285 294 298 295
118 108 83 50 39 13 45 60 70 60 37 12 2 358 357 352 351 1 41 15 333 310 324 343 348 347 346 335 334 161 169 171 217 281 272 235 287 331 314 289 271 278 286